This demonstration page uses our WeatherBlox Daily Observations layout. Learn more.

Left ArrowRight Arrow

30.21309, -93.2044

Hourly Observations for March 19, 2015

Temp ( °F °C ) Dew Point ( °F °C ) Humidity (%) Winds ( mph kmh ) Pressure ( in mb ) Visibility ( mi km ) Precip ( " mm )
12:15 am 00:15 Mostly Cloudy with Mist and Fog 65 18.2 65 18.2 100 100 S 5 7 30.00 1016 3 5 0.00 0.00
12:35 am 00:35 Cloudy with Mist and Fog 65 18.6 65 18.5 99 99 S 5 7 30.00 1016 5 8 0.00 0.00
12:55 am 00:55 Cloudy 66 18.7 65 18.5 99 99 SW 3 6 30.00 1016 7 11 0.00 0.00
1:15 am 01:15 Cloudy 65 18.5 65 18.2 98 98 SSW 3 6 30.00 1016 7 11 0.00 0.00
1:35 am 01:35 Cloudy 65 18.6 65 18.2 98 98 Calm 30.00 1016 7 11 0.00 0.00
1:55 am 01:55 Cloudy 66 18.7 65 18.2 97 97 Calm 30.00 1016 7 11 0.00 0.00
2:15 am 02:15 Mostly Cloudy 66 18.9 65 18.2 96 96 Calm 30.00 1016 10 16 0.00 0.00
2:35 am 02:35 Cloudy 66 19 65 18.4 96 96 Calm 30.00 1016 10 16 0.00 0.00
2:55 am 02:55 Cloudy 66 19.1 65 18.6 97 97 Calm 30.00 1016 7 11 0.00 0.00
3:15 am 03:15 Cloudy 67 19.4 66 18.7 96 96 SSW 3 6 30.00 1016 10 16 0.00 0.00
3:35 am 03:35 Cloudy 66 19.1 65 18.6 97 97 Calm 30.00 1016 7 11 0.00 0.00
3:55 am 03:55 Cloudy with Mist and Fog 67 19.2 66 18.8 98 98 Calm 29.97 1015 5 8 0.00 0.00
4:15 am 04:15 Cloudy with Mist and Fog 67 19.5 66 19 97 97 Calm 29.97 1015 5 8 0.00 0.00
4:35 am 04:35 Cloudy with Mist and Fog 67 19.5 66 19.1 98 98 Calm 29.97 1015 5 8 0.00 0.00
4:55 am 04:55 Cloudy with Mist and Fog 66 19.1 66 18.8 98 98 Calm 29.97 1015 4 6 0.00 0.00
5:15 am 05:15 Cloudy with Mist and Fog 66 19.1 66 18.9 99 99 Calm 29.97 1015 3 5 0.00 0.00
6:00 am 06:00 Cloudy with Mist and Fog 66 19 66 19 100 100 Calm 30.00 1016 4 6 0.00 0.00
6:55 am 06:55 Cloudy with Mist and Fog 66 19 66 19 100 100 Calm 30.00 1016 1 2 0.00 0.00
7:45 am 07:45 Mostly Cloudy with Fog 66 19 66 19 100 100 Calm 30.00 1016 1 1 0.00 0.00
8:45 am 08:45 Cloudy with Mist and Fog 66 19 66 19 100 100 Calm 30.03 1017 2 3 0.00 0.00
10:50 am 10:50 Cloudy 70 21 66 19 88 88 Calm 30.06 1018 7 11 0.00 0.00
11:50 am 11:50 Cloudy 72 22 66 19 83 83 Calm 30.06 1018 7 11 0.00 0.00
12:50 pm 12:50 Mostly Cloudy 75 24 66 19 74 74 Calm 30.03 1017 10 16 0.00 0.00
1:50 pm 13:50 Cloudy 75 24 66 19 74 74 Calm 30.00 1016 10 16 0.00 0.00
8:50 pm 20:50 Partly Cloudy 70 21 66 19 88 88 SSW 5 7 30.03 1017 10 16 0.00 0.00
9:50 pm 21:50 Mostly Clear 70 21 66 19 88 88 SSW 3 6 30.03 1017 10 16 0.00 0.00
10:15 pm 22:15 Clear 68 20 67 19.2 95 95 SSW 5 7 30.03 1017 10 16 0.00 0.00
10:35 pm 22:35 Clear 68 19.9 67 19.2 96 96 SSW 3 6 30.03 1017 10 16 0.00 0.00
10:55 pm 22:55 Clear 67 19.7 67 19.2 97 97 SSW 5 7 30.03 1017 7 11 0.00 0.00
11:15 pm 23:15 Clear 67 19.4 66 19 98 98 Calm 30.03 1017 7 11 0.00 0.00
11:35 pm 23:35 Cloudy with Mist and Fog 65 18.5 65 18.2 98 98 Calm 30.03 1017 1 1 0.00 0.00
11:55 pm 23:55 Cloudy with Fog 65 18.3 65 18.2 99 99 Calm 30.03 1017 5 8 0.00 0.00

Powered by AerisWeather